Weather in Nakhodka

Russia / Yamalo-Nenets Autonomous Okrug     67°43′19″N   77°33′04″E
temp.,
°C
wind,
m/s
gust,
m/s
humid.,
%
clouds,
%
prec.,
mm/h
press.,
hPa
HPBL,
m
27 february, sat
sat2723:00−29wsw1110092 0.1 102219
02:00−30ese0110097 0.0 102219
05:00−31se1110098 0.0 102319
08:00−31ese1110073 0.0 102319
11:00−29ese129784 0.0 102432
14:00−29ese129660 0.0 102422
17:00−31se239667 0.0 102519
20:00−32sse339584 0.0 102619
28 february, sun
sun2823:00−33sse349673 0.0 102625
02:00−33sse449673 0.0 102650
05:00−32sse469685 0.0 102688
08:00−33sse469742 0.0 102682
11:00−31sse589545 0.0 1026225
14:00−29sse589498 0.0 1026245
17:00−30sse599595 0.0 1026179
20:00−29sse6995100 0.0 1025240
1 march, mon
mon123:00−28s61094100 0.0 1025269
02:00−28s6994100 0.0 1024250
05:00−28s61094100 0.0 1023236
08:00−28s71094100 0.0 1021246
11:00−26s71193100 0.0 1021309
14:00−25s71192100 0.0 1019318
17:00−26s71293100 0.0 1018265
20:00−25s71293100 0.0 1017276
2 march, tue
tue223:00−25s81392100 0.0 1016297
02:00−25s81392100 0.0 1015269
05:00−26s81491100 0.0 1015265
08:00−25s91489100 0.0 1014308
11:00−23s91588100 0.0 1014381
14:00−22s91687100 0.0 1014422
17:00−21s91687100 0.0 1014401
20:00−22s91589100 0.0 1013386
3 march, wed
wed323:00−22s91688100 0.0 1013363
02:00−22s91588100 0.0 1013344
05:00−23sse91489100 0.0 1013331
08:00−23sse91590100 0.0 1013335
11:00−23s101591100 0.0 1014387
14:00−21s91590100 0.0 1014426
17:00−21sse91491100 0.0 1014407
20:00−23sse91592100 0.0 1013363